Wetbulb
45.99 41.80 39.65 41.42 42.94 42.23 42.79 43.16 43.89 46.65 49.54 49.23 49.23 49.07 51.27 54.00 54.18 55.53 56.91 58.03 58.96 59.68 61.72 62.98 63.63 64.50 64.86 66.67 70.09 71.68 70.95 72.71 70.77 70.08 70.04 70.60 70.37 71.52 71.92 72.63 73.35 73.35 73.05 72.88
42.00 39.00 42.90 43.67 42.84 41.20 41.35 41.08 42.17 46.28 47.54 48.40 48.19 48.46 51.47 53.25 53.79 55.62 56.37 57.13 58.09 59.23 60.45 61.50 62.50 63.10 64.44 66.50 67.96 69.38 69.89 71.35 71.26 70.80 71.64 71.90 71.88 72.21 72.45 72.70 73.19 73.52 72.83 72.94
38.83 41.25 43.99 41.77 40.64 39.11 40.16 39.70 40.97 42.20 46.19 48.27 47.21 46.10 48.91 52.46 54.39 55.35 56.09 56.93 57.35 57.60 58.09 59.42 60.07 61.90 63.58 64.69 66.94 68.11 69.64 70.84 71.99 72.04 72.01 72.14 72.60 71.59 71.29 71.73 72.05 72.68 73.02 72.83
40.49 43.06 41.47 40.64 38.94 40.08 36.46 41.84 41.64 41.68 42.03 39.03 46.93 38.29 46.80 49.92 50.99 52.91 54.41 55.67 56.25 56.87 57.95 58.51 59.38 60.63 62.39 63.47 64.68 67.29 68.97 70.94 71.54 72.16 72.16 72.00 70.18 69.43 70.65 71.45 72.41 72.50 72.93 72.35
39.88 40.41 39.57 38.45 39.03 41.46 38.45 42.60 41.47 42.48 40.86 41.49 42.00 40.88 44.68 48.94 48.37 50.90 53.41 54.56 55.53 55.88 56.91 57.27 58.15 59.40 60.53 62.03 62.95 66.71 67.95 70.66 71.95 72.12 71.92 70.88 72.15 71.54 71.94 71.88 72.50 72.92 72.83 72.58
42.80 45.93 43.49 41.41 41.99 41.88 43.07 40.88 41.20 41.47 40.89 35.61 39.94 40.05 41.23 44.89 47.78 50.07 52.52 53.14 53.74 54.97 56.06 57.43 58.90 60.05 60.22 61.09 62.03 64.19 67.87 71.13 72.26 71.84 71.71 72.30 72.70 72.18 71.18 71.70 71.42 71.60 72.11 72.27
40.40 40.82 43.66 43.89 38.48 42.01 40.69 37.23 30.14 29.77 30.65 32.11 42.01 39.91 42.48 48.17 49.57 50.68 51.37 52.05 53.20 55.07 55.89 57.60 58.57 59.95 60.35 61.14 62.76 66.37 69.20 70.74 71.87 71.90 71.92 72.39 72.79 72.93 72.63 72.33 71.21 71.00 69.76 69.57
33.52 31.87 39.60 42.88 39.93 38.08 38.20 36.75 31.59 25.28 29.37 33.27 40.57 36.14 42.09 48.86 50.98 52.17 52.32 53.24 53.64 56.21 58.44 59.82 62.09 63.80 60.64 61.48 64.46 68.07 69.71 70.64 71.40 71.56 72.03 72.72 73.07 71.94 71.52 71.53 70.55 69.79 69.07 69.59
32.91 33.00 41.83 42.32 42.75 41.73 38.11 34.21 39.74 33.92 35.87 34.76 38.40 41.53 45.50 48.34 48.93 50.60 50.20 51.77 53.00 56.38 60.14 62.73 64.62 64.86 63.36 62.60 66.23 68.47 70.08 70.86 71.14 71.42 71.57 71.76 71.81 71.74 70.96 71.54 71.51 69.80 71.01 70.42
37.92 31.01 39.41 40.15 42.99 42.76 40.32 40.87 32.44 34.79 26.52 27.39 35.47 38.33 39.32 44.57 46.08 48.85 50.30 51.27 53.21 55.87 58.17 61.65 64.78 64.65 63.89 66.64 68.69 70.39 71.26 70.90 71.10 71.31 71.28 71.13 71.19 71.00 71.08 71.00 70.17 70.45 70.59 70.23
39.69 35.53 35.85 40.00 37.07 35.23 37.73 36.61 36.89 36.66 35.20 29.29 31.85 36.98 46.55 46.74 48.68 49.41 50.03 51.38 53.21 54.48 56.88 60.61 64.32 64.52 66.20 68.11 69.36 70.42 70.85 70.45 70.33 70.77 70.43 70.06 69.67 70.18 70.23 70.07 70.10 70.02 70.08 69.61
41.04 37.17 32.65 35.66 40.55 41.69 39.48 35.67 34.89 32.24 32.17 35.66 35.69 38.43 48.90 49.69 50.18 50.46 50.24 51.94 53.45 54.79 56.21 60.87 64.32 62.73 66.56 67.99 69.45 69.78 70.02 69.83 70.01 69.80 69.54 69.34 69.50 69.53 69.34 69.26 69.31 69.58 68.72 68.92
41.05 36.21 30.80 33.22 38.01 41.10 37.38 38.28 39.56 39.25 38.19 32.60 33.55 37.58 48.52 48.91 48.75 49.45 50.42 51.70 52.95 54.19 55.17 58.37 63.91 61.87 65.15 67.84 68.75 69.07 69.15 69.06 69.07 68.94 68.77 68.68 68.34 68.18 68.04 68.18 68.56 68.65 68.52 68.24
41.28 37.18 32.79 29.65 33.67 37.27 34.14 36.69 39.22 38.31 33.68 34.73 36.39 39.61 44.52 46.88 47.09 48.90 50.43 51.70 51.87 53.28 54.42 57.05 62.15 62.35 63.42 67.28 68.21 68.23 68.51 68.66 68.26 68.16 67.83 67.09 66.66 67.48 68.02 68.40 68.37 68.23 68.16 67.52
38.70 33.71 36.55 37.27 37.99 37.67 36.46 36.16 37.29 36.75 37.76 34.00 37.42 38.84 43.10 45.89 47.11 48.51 50.12 50.15 50.20 52.18 53.87 56.02 60.16 63.15 64.35 66.12 67.61 68.08 67.87 67.87 68.14 66.95 65.92 65.98 67.61 68.06 68.14 68.04 68.12 68.14 67.71 67.36
40.85 32.45 36.34 34.14 37.51 37.47 35.22 37.23 37.80 37.96 38.20 38.60 39.14 38.89 45.11 46.66 47.31 47.06 48.04 48.75 50.20 52.61 53.94 55.79 59.76 63.91 64.34 65.43 66.67 66.73 67.04 67.14 67.12 65.54 65.19 66.25 66.66 67.10 67.21 67.46 67.21 67.64 67.07 66.83
36.40 35.09 33.04 30.20 35.74 34.93 31.74 37.22 38.42 39.17 40.67 40.32 36.88 41.74 45.50 45.14 46.09 47.45 48.41 49.15 50.21 52.93 54.52 56.36 60.21 64.35 64.72 66.92 65.87 64.71 66.74 67.16 65.85 64.80 65.15 65.77 66.32 66.14 66.50 66.77 66.64 66.78 66.87 67.16
35.04 34.29 33.82 28.66 30.98 22.52 35.72 41.49 40.50 38.15 40.22 43.08 42.78 44.48 46.66 47.48 48.33 48.92 50.04 50.85 52.35 53.78 56.29 60.09 62.59 65.62 65.72 66.74 66.55 67.15 67.18 66.05 64.54 64.41 64.80 65.37 65.33 65.47 66.10 66.29 66.22 66.90 67.44 66.87
37.28 34.79 31.94 29.21 29.07 33.40 36.04 38.00 35.77 34.54 36.00 42.56 42.93 45.03 48.05 49.08 49.69 48.64 51.53 53.14 55.20 57.48 59.26 61.23 63.83 66.63 66.23 66.11 67.46 66.86 66.10 64.42 63.69 64.21 64.50 64.52 64.89 65.32 65.70 65.70 66.10 66.81 67.00 66.68
38.22 34.15 32.77 32.30 27.44 25.94 36.31 39.15 40.12 37.19 31.23 40.04 41.78 45.72 46.97 48.82 44.43 47.81 54.36 56.35 57.04 59.03 60.56 61.79 64.68 66.82 65.62 66.28 67.18 66.40 64.97 63.14 63.63 64.48 64.87 64.72 64.65 65.86 65.56 66.41 66.58 66.95 66.91 66.14
35.66 34.09 29.74 30.99 30.05 34.75 39.10 40.43 39.85 30.92 33.47 39.54 41.61 42.45 45.39 44.11 47.73 52.19 54.26 55.03 57.64 58.97 60.76 63.36 64.99 65.92 65.26 66.93 67.55 65.58 64.12 63.11 64.71 65.54 65.48 65.04 65.71 65.71 66.41 66.59 66.81 66.72 66.22 64.91
34.08 32.46 33.39 34.18 31.60 28.46 42.65 39.67 33.56 39.08 42.14 42.35 42.43 45.02 44.09 46.72 49.00 50.75 53.83 55.67 57.65 59.36 61.27 64.35 64.26 64.84 66.05 67.34 66.92 65.32 63.32 64.47 65.54 65.50 64.68 65.10 66.29 65.93 66.31 66.60 66.37 66.19 65.75 64.61
34.71 37.29 34.15 34.69 34.39 43.42 43.67 42.53 44.98 44.23 42.75 43.95 45.09 46.16 48.07 45.75 47.78 51.29 54.26 55.54 58.20 60.50 62.46 64.68 64.38 65.14 66.17 67.59 66.85 64.68 64.05 64.75 65.46 65.29 64.37 65.58 66.50 66.32 66.92 66.48 65.66 64.98 65.35 63.38
40.68 43.20 37.57 38.47 41.05 42.34 43.84 45.41 45.15 45.39 44.66 45.80 46.30 46.45 47.60 47.09 49.85 51.94 54.39 56.15 58.23 60.67 63.53 64.38 64.63 65.03 65.69 67.11 66.86 65.80 64.62 65.14 65.47 65.09 64.54 65.86 66.08 65.76 66.72 66.43 65.73 64.29 63.91 62.32
42.57 43.25 39.82 39.59 41.92 43.02 43.95 44.98 44.97 44.17 45.42 46.45 47.17 47.45 46.85 46.92 49.76 52.80 54.29 55.42 57.11 58.57 64.07 64.70 64.81 65.83 66.35 67.10 67.23 65.29 64.75 65.60 65.27 65.23 64.76 65.41 66.16 66.25 66.35 66.34 64.45 64.47 64.59 62.27
44.56 41.98 39.16 37.43 42.61 42.67 42.87 46.09 45.76 42.89 43.86 46.96 45.81 45.76 47.23 49.59 51.07 50.61 51.62 53.74 56.14 60.91 64.06 64.78 65.40 66.59 66.67 66.89 66.39 64.62 64.85 65.40 65.56 64.78 64.62 64.84 65.61 66.35 66.10 65.02 63.73 42.49 44.60 45.73
MSLP
1008.83 1008.40 1006.54 1006.35 1005.75 1004.85 1004.19 1002.63 1000.67 1000.07 1000.30 1000.02 999.64 999.21 998.95 999.15 998.74 998.61 998.45 998.34 998.38 998.60 998.85 999.14 999.62 1000.09 1000.57 1000.87 1001.01 1000.77 1000.79 1000.92 1001.22 1001.24 1001.48 1001.09 1001.49 1002.10 1002.56 1003.14 1003.77 1004.42 1004.94 1005.56
1008.71 1007.17 1007.13 1006.64 1006.22 1005.19 1004.26 1003.22 1001.67 1001.41 1001.72 1000.21 999.44 997.96 998.37 998.42 997.52 997.58 997.66 997.79 997.98 998.00 998.26 998.64 998.99 999.57 999.74 1000.03 1000.07 999.99 1000.01 1000.23 1000.67 1000.49 1000.73 1000.45 1000.80 1001.47 1002.08 1002.79 1003.53 1004.02 1004.68 1005.27
1007.84 1006.90 1006.85 1006.93 1006.46 1005.97 1004.85 1003.62 1002.99 1002.30 1001.72 1000.79 1000.11 998.06 997.66 997.25 997.06 997.11 997.54 997.81 998.16 998.03 998.03 998.19 998.53 998.62 998.51 998.76 998.89 999.16 999.35 999.63 1000.11 1000.28 1000.53 1000.89 1001.03 1001.69 1001.97 1002.46 1003.05 1003.70 1004.41 1004.95
1007.59 1006.95 1006.80 1006.70 1006.24 1005.94 1004.51 1004.66 1003.79 1002.99 1002.15 1000.14 1000.28 997.33 997.00 996.81 996.63 996.62 996.55 996.85 997.12 997.16 997.37 997.49 997.36 997.02 997.04 997.32 997.82 998.32 998.67 999.05 999.67 1000.05 1000.09 1000.03 1000.26 1000.60 1000.97 1001.57 1002.21 1003.33 1004.15 1004.70
1007.06 1006.89 1006.55 1006.16 1005.71 1005.24 1004.37 1004.29 1003.66 1002.92 1002.14 1001.35 999.82 998.00 995.94 996.07 995.29 995.39 995.61 996.02 996.23 996.32 996.44 996.06 995.75 995.68 995.95 996.50 997.02 997.50 997.98 998.35 998.95 999.68 999.53 999.85 999.97 1000.11 1000.77 1001.18 1002.34 1002.91 1003.94 1004.53
1006.92 1006.64 1006.58 1006.05 1005.89 1005.16 1004.63 1004.15 1003.50 1002.98 1002.04 1000.25 998.60 998.54 995.83 995.76 995.18 995.13 995.06 995.32 995.56 995.38 995.13 995.23 995.25 995.39 995.44 995.89 996.24 996.88 997.33 997.87 998.74 999.36 999.32 999.64 999.75 1000.06 1000.51 1001.21 1001.93 1002.60 1003.50 1004.32
1007.17 1005.99 1005.84 1006.23 1006.51 1005.65 1004.69 1004.40 1003.39 1002.56 1001.23 998.79 998.22 997.67 995.91 994.79 994.90 994.61 994.31 995.02 995.47 995.17 994.86 994.88 994.84 994.61 994.66 995.20 995.61 996.17 996.78 997.57 998.45 998.82 999.09 999.55 1000.01 1000.34 1000.66 1001.22 1001.44 1002.23 1003.01 1003.66
1007.82 1006.52 1006.46 1006.55 1006.60 1005.40 1004.32 1003.71 1002.70 1001.18 999.93 999.00 998.50 996.36 995.15 995.89 995.44 995.28 995.21 995.31 995.54 995.17 994.90 994.81 994.60 994.47 994.21 994.65 995.03 995.65 996.44 997.32 998.11 998.42 998.95 999.54 1000.02 1000.19 1000.70 1000.99 1001.61 1002.14 1002.70 1003.46
1008.77 1007.30 1007.13 1006.75 1006.27 1005.89 1004.46 1003.50 1003.23 1001.53 1000.00 997.87 996.22 996.46 996.53 995.47 995.20 995.27 995.25 995.49 995.49 995.41 994.98 994.70 994.58 994.45 994.26 994.28 994.79 995.46 996.14 997.13 997.86 998.25 999.01 999.61 999.89 1000.25 1000.69 1001.47 1002.06 1002.48 1002.91 1003.64
1009.57 1008.45 1006.70 1006.85 1006.66 1005.61 1004.80 1004.46 1003.35 1001.71 1000.44 997.75 995.86 994.64 994.35 994.10 994.66 995.05 994.99 995.77 995.70 995.35 994.93 994.81 994.85 994.76 994.33 994.48 995.07 995.47 996.24 997.05 997.65 998.37 999.09 999.66 1000.08 1000.51 1001.23 1001.90 1002.09 1002.75 1003.40 1003.79
1009.49 1008.94 1007.14 1006.33 1005.86 1005.48 1004.90 1003.92 1003.79 1003.02 1000.56 998.30 995.69 994.00 993.62 993.63 993.20 994.76 995.88 996.22 995.72 995.44 995.14 994.77 995.21 995.52 994.72 994.86 995.12 995.71 996.34 997.02 997.80 998.52 999.13 999.74 1000.19 1000.75 1001.44 1001.96 1002.50 1003.14 1003.63 1004.02
1009.42 1008.92 1007.14 1005.54 1005.03 1005.35 1005.61 1005.56 1004.85 1003.08 1001.55 999.11 996.73 994.37 994.25 993.85 995.19 996.01 996.46 996.15 996.21 995.83 995.17 994.86 995.53 996.12 995.03 995.00 995.35 995.93 996.62 997.24 997.93 998.63 999.32 999.92 1000.38 1000.97 1001.59 1002.10 1002.63 1003.23 1003.61 1004.02
1010.17 1008.52 1006.95 1004.63 1004.60 1004.57 1004.70 1004.43 1003.86 1003.38 1001.85 1001.06 997.20 995.01 995.34 995.57 995.34 995.71 996.39 996.57 996.49 996.01 995.35 994.67 995.22 996.27 995.55 995.21 995.63 996.23 996.79 997.38 998.10 998.74 999.48 1000.13 1000.65 1001.21 1001.77 1002.29 1002.84 1003.21 1003.61 1003.95
1011.71 1009.89 1008.28 1006.27 1004.56 1004.72 1004.75 1004.73 1003.84 1003.12 1002.13 999.92 998.50 996.12 995.15 995.26 995.10 995.87 996.47 996.89 996.50 996.21 995.39 994.75 994.85 996.28 996.31 995.55 995.82 996.40 996.84 997.65 998.28 998.96 999.64 1000.31 1000.89 1001.43 1001.91 1002.37 1002.90 1003.27 1003.54 1003.92
1012.02 1009.91 1008.25 1006.49 1005.52 1005.10 1004.67 1004.29 1003.89 1003.03 1002.10 1000.77 999.12 997.63 996.46 996.17 996.36 996.68 997.13 996.98 996.35 995.96 995.48 995.09 994.75 995.92 996.34 995.93 996.14 996.58 997.20 997.86 998.43 999.07 999.88 1000.62 1001.20 1001.57 1001.96 1002.39 1002.88 1003.25 1003.57 1003.86
1011.33 1010.01 1008.46 1006.89 1005.78 1004.92 1004.06 1003.59 1003.08 1002.31 1001.97 1001.07 1000.30 998.88 998.29 997.90 997.64 997.23 996.90 996.64 996.04 995.88 995.56 995.34 995.06 995.57 996.06 996.17 996.23 996.83 997.37 998.03 998.68 999.17 999.88 1000.73 1001.24 1001.61 1002.09 1002.51 1002.95 1003.34 1003.58 1003.87
1011.58 1010.06 1008.97 1006.99 1005.68 1005.13 1003.86 1002.43 1002.11 1001.73 1001.05 1000.48 999.39 998.55 998.01 997.35 997.08 996.91 996.72 996.48 996.22 996.09 995.69 995.34 995.00 994.72 995.81 995.88 996.44 997.05 997.47 998.24 998.78 999.22 999.89 1000.59 1001.22 1001.60 1002.09 1002.53 1002.99 1003.33 1003.80 1004.28
1011.03 1010.51 1009.89 1008.24 1007.79 1005.88 1004.16 1004.44 1004.38 1004.05 1002.93 1001.73 1000.48 999.68 998.31 997.41 997.24 996.91 996.69 996.27 996.38 996.14 995.51 995.14 994.91 994.28 995.32 995.58 996.43 996.92 997.60 998.27 998.67 999.13 999.80 1000.46 1001.00 1001.47 1001.99 1002.48 1002.95 1003.51 1004.08 1004.42
1010.95 1011.12 1009.96 1008.54 1007.17 1005.69 1004.78 1005.43 1006.28 1005.91 1003.82 1003.17 1001.44 999.88 998.11 997.32 996.99 996.65 996.48 996.43 996.24 996.37 995.98 995.34 994.84 994.16 995.12 995.62 996.01 996.78 997.52 998.10 998.42 998.99 999.73 1000.34 1000.85 1001.43 1001.98 1002.41 1003.13 1003.57 1004.05 1004.40
1009.97 1010.66 1010.39 1008.48 1007.38 1005.96 1006.28 1006.94 1006.98 1006.76 1005.07 1004.22 1003.33 1001.20 999.49 998.94 997.12 996.12 996.10 996.85 996.66 996.29 995.78 995.11 994.33 993.99 995.11 995.56 995.91 996.61 997.34 997.81 998.17 998.80 999.54 1000.25 1000.83 1001.45 1001.98 1002.58 1003.33 1003.53 1003.94 1004.53
1008.46 1009.29 1009.15 1008.16 1007.23 1005.99 1006.78 1007.01 1007.04 1006.69 1006.19 1004.82 1004.07 1002.80 1001.30 1000.41 999.62 998.12 997.70 997.12 996.47 995.85 995.31 994.73 993.99 993.86 995.05 995.34 995.86 996.53 997.16 997.60 998.02 998.71 999.42 1000.19 1000.98 1001.61 1002.14 1002.76 1003.32 1003.64 1004.03 1004.59
1008.05 1008.07 1007.81 1007.45 1006.44 1006.05 1006.21 1006.78 1006.99 1006.40 1005.49 1004.96 1004.25 1002.97 1001.89 1000.90 1000.14 999.35 998.07 996.87 996.06 995.28 994.76 993.90 993.62 993.97 994.87 995.17 995.74 996.27 996.99 997.53 998.03 998.64 999.33 1000.15 1001.14 1001.50 1002.29 1002.98 1003.22 1003.68 1004.18 1004.73
1007.16 1007.33 1007.77 1007.67 1006.73 1005.98 1006.15 1006.31 1005.88 1005.81 1005.14 1004.23 1003.39 1002.69 1001.55 1001.17 1000.04 998.97 997.54 996.80 995.74 994.80 994.04 993.26 993.25 993.89 994.58 994.93 995.48 995.99 996.84 997.46 997.97 998.59 999.36 1000.20 1001.19 1001.63 1002.26 1002.80 1003.24 1003.53 1004.30 1004.70
1006.37 1005.98 1006.32 1005.54 1004.84 1004.68 1004.72 1005.13 1005.11 1005.12 1004.50 1003.76 1003.08 1002.32 1001.53 1000.74 999.79 998.47 997.56 996.55 995.48 994.38 993.34 992.93 992.99 993.57 994.16 994.72 995.25 995.96 996.75 997.29 997.95 998.60 999.46 1000.34 1001.03 1001.59 1002.27 1002.64 1003.16 1003.17 1004.04 1004.86
1006.10 1005.71 1004.99 1004.39 1004.16 1004.35 1003.92 1004.02 1004.40 1004.44 1003.91 1003.06 1002.38 1001.87 1001.42 1000.74 999.39 998.21 997.39 996.51 995.40 994.42 992.85 992.68 992.63 993.24 993.91 994.46 994.98 995.84 996.54 997.25 998.04 998.70 999.47 1000.28 1000.70 1001.48 1002.04 1002.48 1003.57 1003.53 1004.22 1004.49
1004.92 1004.61 1004.66 1004.36 1004.19 1004.39 1003.95 1003.67 1003.75 1004.07 1003.33 1002.28 1001.95 1001.46 1000.92 1000.06 998.98 998.55 997.51 996.36 995.07 993.74 992.63 992.80 992.79 993.31 993.84 994.32 994.82 995.63 996.43 997.28 998.03 998.67 999.23 999.82 1000.20 1001.00 1001.52 1002.82 1004.02 1005.11 1005.50 1005.67
Wind_Speed
15 13 17 16 20 29 28 30 26 28 22 26 28 34 32 28 27 24 22 19 19 19 19 17 15 13 13 15 15 13 13 10 7 7 9 8 9 8 9 8 11 12 11 13
12 19 19 19 19 24 28 30 32 22 16 22 28 33 27 27 27 27 26 23 23 21 19 18 16 16 16 15 14 12 11 10 9 7 7 4 7 7 8 8 10 11 12 13
17 19 17 15 17 20 25 27 26 29 15 19 21 29 29 28 27 24 21 22 21 21 21 19 19 18 16 15 13 11 9 9 9 10 7 6 7 7 8 9 9 10 12 13
16 16 17 19 21 21 24 24 27 26 26 19 22 22 24 26 27 28 26 22 20 19 17 18 20 20 19 17 15 13 10 8 9 11 11 11 9 9 8 10 9 10 12 12
17 17 16 19 19 21 23 21 26 20 24 25 29 18 15 16 20 19 18 19 20 19 20 21 19 19 19 17 14 12 11 9 9 12 11 10 10 7 8 9 13 12 11 11
21 16 19 17 17 19 17 17 21 18 21 24 32 25 22 22 25 22 20 16 15 15 13 12 13 14 15 15 14 12 11 9 11 12 12 12 10 11 11 11 11 10 10 9
18 9 12 16 18 19 16 17 14 15 14 16 21 24 20 7 6 12 12 5 5 6 7 8 10 11 10 14 13 10 11 11 12 13 12 12 12 12 13 14 10 11 9 8
9 7 7 6 19 18 19 18 14 21 17 20 22 15 16 16 24 14 10 10 3 6 7 8 10 10 9 10 12 11 12 12 13 13 13 12 13 10 10 9 10 8 8 8
13 7 7 13 11 14 21 19 21 24 24 21 17 23 22 7 9 9 3 5 3 8 9 11 11 8 8 8 11 12 14 14 15 15 13 13 11 11 10 11 10 7 7 8
8 12 4 2 11 20 21 11 13 15 15 17 18 21 12 26 27 17 5 1 7 10 12 13 10 7 5 7 9 12 14 16 16 16 14 12 12 12 12 11 9 9 8 8
15 6 12 9 6 8 14 19 10 17 13 16 14 16 18 11 13 12 5 5 11 13 13 13 10 8 3 8 11 13 15 16 16 15 14 14 13 13 12 10 10 9 8 8
15 8 14 17 4 10 13 9 6 12 14 16 15 4 2 14 15 8 3 9 12 14 14 12 10 5 4 9 13 14 14 15 15 15 15 14 14 13 11 10 9 8 8 7
10 7 12 10 6 9 8 13 12 13 16 15 16 9 10 10 8 5 9 13 14 15 15 13 10 4 4 10 13 14 14 15 15 15 15 14 13 12 11 10 9 8 9 8
12 14 14 14 20 10 10 10 12 12 11 17 16 21 14 17 8 12 14 16 17 16 16 14 9 3 5 9 12 14 14 14 15 14 14 13 12 11 10 10 9 9 9 9
6 15 18 20 18 18 17 18 18 20 19 19 20 18 18 18 18 17 18 21 21 16 15 13 11 5 8 10 13 14 14 14 14 14 13 12 11 11 11 10 9 9 9 9
9 11 13 17 18 19 21 22 22 23 22 23 22 25 23 22 22 22 20 19 17 16 16 14 13 7 10 11 13 14 14 14 13 13 13 12 11 11 10 10 9 9 10 10
6 6 8 14 10 12 15 17 18 19 21 18 20 19 19 21 19 18 18 17 17 16 16 15 11 5 12 14 13 14 15 14 13 13 13 11 11 11 10 10 9 10 9 9
8 9 7 5 9 10 3 10 11 15 17 17 17 19 23 22 20 17 16 15 15 17 16 12 11 5 13 14 15 15 15 14 14 13 12 12 12 11 10 9 8 9 9 9
11 3 4 5 6 12 14 2 2 3 14 18 20 18 19 16 15 16 16 16 10 12 14 12 11 7 12 12 17 17 16 15 14 14 13 12 11 11 10 9 8 9 9 9
8 7 4 4 5 5 6 9 11 4 7 13 15 15 14 16 10 8 9 10 13 15 13 12 13 10 12 13 17 17 17 15 15 15 13 11 11 10 9 9 9 8 8 9
4 3 8 10 9 3 6 13 3 5 6 15 15 17 15 10 11 19 18 18 16 15 15 12 11 12 12 16 18 18 17 16 15 15 13 12 10 9 9 8 8 8 8 9
3 5 3 4 5 4 13 9 4 6 16 14 15 14 14 15 14 16 18 16 16 15 13 12 10 11 12 18 18 18 17 16 15 15 14 14 11 8 9 9 8 8 8 9
3 5 3 3 4 11 9 12 10 11 14 16 13 14 16 12 14 17 16 16 16 14 11 10 11 13 16 18 18 18 17 17 16 15 14 13 11 9 8 8 8 7 7 7
7 3 4 11 7 13 11 10 11 15 18 15 15 14 14 12 16 16 15 14 12 12 9 10 13 16 17 18 18 16 17 17 16 15 14 12 10 9 9 7 6 5 7 6
10 8 9 9 10 15 4 16 14 16 18 14 13 11 10 14 16 15 14 13 13 13 9 11 13 15 17 18 18 17 17 17 16 14 13 12 9 9 9 5 3 3 6 5
3 7 6 8 13 13 17 18 15 16 18 15 9 10 13 15 12 12 12 12 14 13 10 10 12 15 17 17 17 17 17 17 15 13 12 11 10 8 8 8 7 15 11 10
Wind_Direction
247 254 246 256 252 249 261 268 267 254 248 255 225 239 245 244 253 248 252 248 249 250 259 267 270 270 267 258 251 250 249 245 223 212 221 203 202 195 191 193 184 185 190 191
252 249 264 280 282 270 250 253 256 261 284 245 246 242 245 249 250 251 250 251 256 260 260 261 267 262 256 255 254 260 256 248 232 210 222 215 193 187 186 184 179 181 180 183
273 269 283 281 270 258 261 253 251 253 269 238 255 252 249 243 245 253 258 258 260 261 265 268 265 262 261 256 259 261 254 252 234 224 188 179 151 167 181 171 171 172 179 177
290 287 268 259 263 264 260 252 255 249 244 242 218 254 240 231 238 242 247 248 255 257 260 261 264 266 265 266 266 260 246 232 221 201 195 179 187 181 180 171 159 159 171 171
294 289 259 252 257 264 261 252 249 240 240 249 246 252 253 261 254 252 255 255 257 263 261 264 271 273 270 263 255 248 239 225 215 197 201 180 214 160 161 156 144 149 159 166
278 276 262 261 269 292 251 256 239 247 237 229 236 242 252 252 254 249 249 250 259 258 264 266 276 275 264 250 238 234 222 203 194 195 189 195 177 160 152 149 154 152 158 162
310 285 275 233 259 273 244 244 230 219 229 245 226 228 239 244 334 296 251 233 288 287 267 280 280 280 251 229 218 207 195 187 183 179 170 172 164 162 149 154 152 150 156 161
328 325 14 240 227 255 245 231 231 223 224 232 231 235 223 237 252 206 277 269 268 342 337 304 304 288 253 225 197 189 180 174 172 160 156 152 153 152 144 152 140 159 162 169
311 286 271 246 260 266 252 250 241 265 280 246 216 217 251 226 216 203 184 203 345 353 349 341 330 302 253 211 189 187 174 164 161 146 144 145 146 146 136 134 152 144 143 137
309 299 270 277 259 252 245 265 270 243 252 240 236 208 224 214 232 235 158 77 10 6 350 354 351 338 243 172 167 165 159 157 146 143 145 141 138 134 136 142 143 148 138 151
296 278 290 245 228 237 284 225 213 264 261 257 221 219 210 241 188 142 107 24 18 1 349 0 9 340 202 159 150 150 149 145 144 144 138 138 135 133 137 139 141 144 147 160
300 290 284 281 232 177 241 226 324 266 230 253 278 68 100 151 118 111 17 14 2 354 348 1 29 3 186 154 145 144 145 146 143 140 140 137 135 136 138 139 140 148 160 169
351 258 292 283 179 205 236 262 260 247 275 276 256 234 138 152 147 70 1 347 339 343 345 351 31 26 257 151 148 145 149 142 141 141 137 137 136 137 138 140 144 160 156 156
305 264 260 282 306 314 292 282 271 278 265 261 244 266 187 203 300 325 328 318 319 325 331 343 14 74 229 160 150 149 144 143 143 141 138 137 141 141 143 143 152 156 158 157
256 265 269 269 271 280 276 268 262 256 257 265 267 268 267 281 297 312 303 299 299 312 322 339 345 106 218 173 154 149 145 146 144 141 138 142 142 143 144 149 152 154 157 160
228 255 277 293 284 270 271 267 260 253 249 254 258 266 274 278 281 280 287 290 303 311 318 323 319 130 223 174 162 149 150 148 149 146 143 148 147 144 145 148 155 162 163 166
279 270 282 266 283 295 268 263 252 254 249 255 256 260 263 265 270 276 285 290 297 299 307 308 305 252 203 171 162 161 153 155 153 153 146 148 151 148 150 157 165 168 167 165
245 241 251 279 312 246 48 32 4 334 301 288 287 284 270 265 268 276 276 285 295 292 301 312 312 249 175 173 159 163 156 160 159 151 148 148 158 150 154 162 168 156 168 167
214 243 257 250 246 282 271 335 2 284 287 295 282 274 276 279 258 260 266 270 291 305 294 296 291 233 163 176 161 161 162 166 161 153 147 148 150 148 156 163 159 160 158 156
187 213 270 260 263 291 64 350 316 255 252 358 336 316 313 342 264 248 30 330 303 297 296 295 291 180 162 177 165 164 166 168 163 156 152 147 151 148 157 144 162 159 155 153
319 184 221 248 250 256 16 332 334 267 2 312 314 306 307 296 280 315 313 301 297 294 292 289 255 171 174 172 167 170 166 169 162 157 150 147 146 153 140 147 150 156 154 151
299 321 333 297 265 4 1 335 299 291 295 294 294 287 288 287 299 297 285 294 294 292 290 272 198 167 175 170 172 170 168 166 162 157 152 146 147 158 147 153 156 156 151 154
312 355 301 251 263 289 317 279 308 315 307 310 291 283 284 277 291 288 292 293 290 288 281 260 173 169 175 172 175 166 167 167 164 159 156 148 157 157 150 156 152 161 156 151
301 322 269 309 351 327 323 274 331 321 314 302 299 287 276 295 290 289 288 288 298 296 274 216 180 168 170 174 174 166 166 166 163 163 156 152 167 162 158 167 166 158 147 167
285 323 302 293 347 332 321 332 340 326 308 289 290 274 290 291 287 290 295 300 293 284 245 189 180 165 170 172 170 164 165 164 164 166 161 165 161 185 160 139 77 155 104 157
239 327 321 329 342 326 320 322 343 315 301 294 295 297 295 287 294 294 287 291 279 263 176 171 166 166 165 171 166 163 164 165 166 171 172 177 156 173 166 144 136 56 48 53